[[{"header":{"parameterUnit":"m.s-1","parameterCategory":1,"la1":30.2991,"la2":30.254,"lo1":-89.0895,"lo2":-89.0444,"dy":0.0017,"dx":0.0017,"nx":28,"ny":28,"refTime":"2023-08-18T09:00:00:Z","depth":0,"parameterNumber":2,"parameterNumberName":"U-component_of_WINDS"},"data":[0,0,0,0,0,0,0,0,0,0,0,0,0,0,0,0,0,0,0,0,0,0,0,0,0,0,0,0,0,0,0,0,0,0,0,0,0,0,0,0,0,0,0,0,0,0,0,0,0,0,0,0,0,0,0,0,0,0,2.7362,2.7363,0,2.7452,2.7453,2.7454,2.7425,2.7424,2.7422,2.742,2.7509,2.7513,2.7517,0,0,0,0,0,0,0,0,0,0,0,0,0,2.7163,2.7167,2.7362,2.7363,2.7364,2.7451,2.7453,2.7454,2.7426,2.7423,2.7421,2.7419,2.7508,2.7512,2.7517,0,0,0,0,0,0,0,0,0,0,0,0,0,2.7251,2.7168,2.7362,2.7361,2.7362,2.7451,2.7453,2.7454,2.7426,2.7423,2.7421,2.7418,2.7506,2.7512,2.7518,2.7613,0,0,2.7537,2.754,0,0,0,0,0,0,0,0,2.7246,2.7258,2.736,2.7361,2.7362,2.7425,2.7415,2.7507,2.7427,2.7402,2.742,2.7416,2.7483,2.7491,2.7514,2.7617,2.7621,2.7538,2.7541,2.7544,2.7546,0,0,0,0,0,0,0,2.724,2.7254,2.7397,2.7361,2.7363,2.7355,2.7364,2.7433,2.7457,2.7404,2.7402,2.7413,2.7483,2.7508,2.7516,2.7622,2.7537,2.7543,2.7547,2.7549,2.7805,2.7808,0,0,0,0,0,0,2.7234,2.7249,2.7395,2.74,2.7296,2.7361,2.7371,2.7407,2.7456,2.7461,2.7415,2.7411,2.7499,2.7508,2.7519,2.7631,2.7544,2.755,2.7553,2.7802,2.7806,2.7809,0,0,0,0,0,0,2.7229,2.7247,2.7391,2.7324,2.7342,2.7367,2.7408,2.7411,2.7435,2.7465,2.7469,2.7436,2.7497,2.751,2.7589,2.7633,2.7553,2.7558,2.7798,2.7803,2.7807,2.7857,0,0,0,0,0,0,2.7224,2.7246,2.7283,2.7325,2.7346,2.7461,2.7411,2.7414,2.7446,2.7442,2.7486,2.749,2.7496,2.758,2.7595,2.764,2.7563,2.7794,2.7801,2.7806,2.7851,2.7862,2.7872,0,0,0,0,0,2.7217,2.7293,2.7285,2.7303,2.7393,2.7464,2.7476,2.7481,2.745,2.7487,2.7506,2.7489,2.7627,2.7589,2.7606,2.7653,2.7792,2.7799,2.7806,2.7847,2.786,2.7872,0,0,0,0,0,0,2.7255,2.7299,2.729,2.7383,2.742,2.7459,2.7506,2.7496,2.7541,2.7535,2.7539,2.7549,2.763,2.765,2.7607,2.7746,2.7704,2.7715,2.773,2.7743,2.7753,2.7746,2.7568,0,0,0,0,0,2.7274,2.7329,2.7365,2.7443,2.7462,2.7481,2.7512,2.7513,2.7551,2.7566,2.7591,2.7628,2.7679,2.7712,2.7762,2.7855,2.7862,2.7896,2.7906,2.7914,2.7923,2.797,2.7985,2.7832,2.7832,2.7832,0,0,2.7315,2.7345,2.738,2.7451,2.748,2.7535,2.7494,2.7555,2.7595,2.7575,2.7651,2.767,2.7712,2.7797,2.7837,2.7816,2.7967,2.7923,2.793,2.7933,2.7979,2.7993,2.8006,2.7837,2.7836,2.7835,0,0,2.7415,2.7446,2.7513,2.7542,2.7586,2.7598,2.7614,2.7655,2.7667,2.7744,2.7729,2.7777,2.7866,2.7895,2.7921,2.8031,2.8016,2.8047,2.8101,2.8147,2.8159,2.817,2.8206,2.8219,2.8056,2.8056,2.8056,0,2.7459,2.7543,2.7548,2.761,2.764,2.7626,2.7692,2.772,2.7778,2.7799,2.7776,2.7886,2.7913,2.8003,2.803,2.8053,2.807,2.8041,2.8157,2.8168,2.8178,2.8212,2.8226,2.8059,2.8059,2.8059,2.8058,0,2.7593,2.7651,2.77,2.7756,2.7792,2.7856,2.787,2.7906,2.7903,2.7917,2.7993,2.8025,2.8079,2.8101,2.81,2.8191,2.8177,2.8156,2.8114,2.8195,2.8228,2.8241,2.8064,2.8063,2.8062,2.8061,0,0,2.772,2.7777,2.7795,2.7819,2.7866,2.791,2.7973,2.8026,2.8055,2.8095,2.8146,2.8221,2.8201,2.8231,2.8232,2.8273,2.8355,2.8247,2.8248,2.8263,2.8454,2.8468,2.8483,2.8346,2.8349,2.8351,2.845,0,2.7822,2.7932,2.7938,2.8037,2.8089,2.8075,2.8129,2.8163,2.8177,2.8222,2.8238,2.829,2.8261,2.8279,2.8319,2.8336,2.8393,2.833,2.8391,2.8393,2.8378,2.8501,2.8516,2.8607,2.8463,2.8465,2.8466,0,2.7956,2.8,2.8104,2.8142,2.8164,2.8212,2.826,2.8304,2.8341,2.8349,2.8382,2.8377,2.8438,2.8396,2.8479,2.8436,2.8462,2.8474,2.8477,2.8481,2.8433,2.8505,2.8637,2.8649,2.8487,2.8485,2.8484,0,2.8034,2.812,2.8192,2.8214,2.826,2.8294,2.8315,2.8349,2.838,2.8422,2.8441,2.8489,2.8515,2.8552,2.8559,2.8528,2.8642,2.8601,2.8647,2.8647,2.867,2.8668,2.8805,2.8691,2.8691,2.8691,2.869,0,2.8146,2.821,2.8227,2.8272,2.8342,2.8348,2.8416,2.8435,2.8465,2.8511,2.8503,2.8546,2.8555,2.86,2.8606,2.8672,2.8685,2.8691,2.8691,2.869,2.8689,2.8705,2.8697,2.8694,2.8694,2.8693,2.8692,0,2.8244,2.8259,2.8337,2.8374,2.8385,2.8435,2.8466,2.8507,2.852,2.8579,2.8593,2.8613,2.8665,2.8677,2.8739,2.8743,2.882,2.8816,2.8808,2.8806,2.8851,2.8846,2.9001,2.9021,2.8897,2.8898,2.8899,0,2.8314,2.8362,2.8404,2.8435,2.8457,2.8507,2.8538,2.8545,2.8577,2.8622,2.8658,2.8709,2.875,2.8833,2.8853,2.8899,2.8894,2.8945,2.8901,2.8897,2.8891,2.8887,2.889,2.8953,2.8954,2.8955,2.8956,0,2.8434,2.8438,2.8484,2.8531,2.8569,2.8607,2.8643,2.8668,2.868,2.8716,2.8769,2.8801,2.8864,2.8913,2.896,2.898,2.8969,2.897,2.8983,2.8981,2.8973,2.8974,2.8828,2.8966,2.8965,2.8964,2.8964,2.8963,2.8517,2.8559,2.8594,2.8644,2.8672,2.8706,2.8746,2.8764,2.8808,2.886,2.8862,2.8918,2.8952,2.9014,2.9036,2.9079,2.9063,2.9083,2.9087,2.9091,2.9093,2.8968,2.9088,2.9088,2.9088,2.9088,2.9087,0,2.8634,2.8656,2.8703,2.8753,2.8792,2.878,2.8819,2.8851,2.8902,2.8935,2.8975,2.9034,2.9082,2.9105,2.9152,2.9182,2.9178,2.9194,2.919,2.9194,2.9107,2.9089,2.9196,2.9196,2.9196,2.9196,2.9196,2.9196,2.8699,2.8767,2.8776,2.8857,2.8878,2.8934,2.8957,2.8987,2.9013,2.908,2.9119,2.9134,2.9163,2.9211,2.9254,2.9259,2.9275,2.9292,2.9295,2.9212,2.9201,2.919,2.9174,2.9297,2.9297,2.9379,2.938,2.938]},{"header":{"parameterUnit":"m.s-1","parameterCategory":1,"la1":30.2991,"la2":30.254,"lo1":-89.0895,"lo2":-89.0444,"dy":0.0017,"dx":0.0017,"nx":28,"ny":28,"refTime":"2023-08-18T09:00:00:Z","depth":0,"parameterNumber":3,"parameterNumberName":"V-component_of_WINDS"},"data":[0,0,0,0,0,0,0,0,0,0,0,0,0,0,0,0,0,0,0,0,0,0,0,0,0,0,0,0,0,0,0,0,0,0,0,0,0,0,0,0,0,0,0,0,0,0,0,0,0,0,0,0,0,0,0,0,0,0,1.6711,1.6711,0,1.6747,1.6748,1.6748,1.6724,1.6723,1.6722,1.6721,1.6755,1.6757,1.6759,0,0,0,0,0,0,0,0,0,0,0,0,0,1.6617,1.6619,1.6711,1.6711,1.6712,1.6747,1.6748,1.6748,1.6724,1.6723,1.6721,1.672,1.6755,1.6757,1.6759,0,0,0,0,0,0,0,0,0,0,0,0,0,1.6656,1.662,1.6711,1.6704,1.6704,1.6747,1.6748,1.6748,1.6724,1.6723,1.6721,1.672,1.6754,1.6757,1.676,1.6811,0,0,1.6769,1.677,0,0,0,0,0,0,0,0,1.6654,1.666,1.6705,1.6705,1.6705,1.6729,1.6727,1.6769,1.6725,1.6717,1.6721,1.6719,1.6748,1.6751,1.6762,1.6812,1.6814,1.6769,1.6771,1.6772,1.6773,0,0,0,0,0,0,0,1.6651,1.6658,1.6725,1.6705,1.6705,1.6698,1.6702,1.6735,1.6741,1.6717,1.6716,1.672,1.6748,1.6759,1.6762,1.6814,1.6769,1.6771,1.6773,1.6774,1.6907,1.6908,0,0,0,0,0,0,1.665,1.6656,1.6724,1.6726,1.6675,1.6701,1.6705,1.6723,1.6741,1.6742,1.6722,1.6719,1.6755,1.6759,1.6763,1.6823,1.6772,1.6775,1.6776,1.6905,1.6907,1.6909,0,0,0,0,0,0,1.6648,1.6656,1.6723,1.6691,1.6699,1.6705,1.6725,1.6725,1.6736,1.6744,1.6745,1.6732,1.6754,1.6759,1.6799,1.6824,1.6776,1.6779,1.6903,1.6906,1.6908,1.6943,0,0,0,0,0,0,1.6645,1.6655,1.6676,1.6691,1.67,1.6759,1.6726,1.6727,1.6741,1.6738,1.6754,1.6755,1.6753,1.6795,1.6802,1.6827,1.6781,1.6901,1.6904,1.6907,1.694,1.6947,1.6953,0,0,0,0,0,1.6642,1.6684,1.6677,1.6685,1.6726,1.676,1.6765,1.6762,1.6744,1.6763,1.6768,1.6755,1.682,1.6799,1.6807,1.6833,1.6899,1.6903,1.6907,1.6937,1.6946,1.6953,0,0,0,0,0,0,1.6671,1.6686,1.6678,1.6727,1.6743,1.6756,1.6781,1.6771,1.6792,1.6788,1.6783,1.6786,1.6828,1.6834,1.6811,1.6882,1.6856,1.6862,1.6877,1.6885,1.6891,1.6888,1.6783,0,0,0,0,0,1.6683,1.6711,1.6722,1.6764,1.6772,1.6775,1.679,1.6786,1.6802,1.6808,1.6816,1.683,1.6854,1.687,1.6892,1.6941,1.6943,1.6963,1.6969,1.6975,1.6979,1.7004,1.7013,1.6922,1.6922,1.6922,0,0,1.6708,1.672,1.6738,1.677,1.6781,1.6809,1.6781,1.6811,1.6831,1.6812,1.685,1.6856,1.6872,1.6916,1.6936,1.6923,1.7005,1.698,1.6984,1.6986,1.7009,1.7018,1.7025,1.6925,1.6924,1.6924,0,0,1.6768,1.678,1.6816,1.6828,1.6846,1.6848,1.6856,1.6871,1.6874,1.6912,1.6899,1.6921,1.6963,1.6974,1.6986,1.7048,1.7036,1.7056,1.7089,1.7113,1.712,1.7127,1.7148,1.7156,1.706,1.7061,1.7061,0,1.6797,1.6838,1.6835,1.6866,1.688,1.6865,1.69,1.6912,1.6936,1.6945,1.693,1.6981,1.6991,1.7037,1.7052,1.7062,1.707,1.7054,1.712,1.7126,1.7132,1.7152,1.716,1.7063,1.7062,1.7062,1.7062,0,1.6872,1.6901,1.6928,1.6952,1.6968,1.7001,1.7002,1.7019,1.7013,1.7016,1.7054,1.7065,1.7089,1.71,1.7095,1.7144,1.7136,1.7121,1.7094,1.7143,1.7161,1.7169,1.7066,1.7065,1.7064,1.7064,0,0,1.6952,1.6973,1.6983,1.6993,1.7011,1.7033,1.7064,1.7088,1.7102,1.7119,1.7144,1.7179,1.7165,1.7178,1.7173,1.7195,1.7242,1.7177,1.7177,1.7188,1.7296,1.7307,1.7316,1.7234,1.7236,1.7237,1.7295,0,1.7012,1.7068,1.7065,1.7117,1.7143,1.7128,1.7155,1.7168,1.7172,1.7193,1.7196,1.722,1.72,1.7208,1.7228,1.7232,1.7264,1.7228,1.7257,1.7258,1.7253,1.7326,1.7338,1.7392,1.7302,1.7303,1.7304,0,1.709,1.7109,1.7164,1.7177,1.7188,1.7212,1.7233,1.7254,1.7268,1.7269,1.7283,1.7275,1.7305,1.7278,1.7319,1.7295,1.7306,1.731,1.7312,1.7314,1.7284,1.7329,1.7409,1.7417,1.7316,1.7315,1.7314,0,1.7141,1.7181,1.7218,1.7227,1.7244,1.7261,1.7269,1.7282,1.7296,1.7313,1.7322,1.7343,1.7354,1.737,1.7368,1.7348,1.7409,1.7382,1.7409,1.7409,1.7422,1.7421,1.7504,1.7431,1.7431,1.7431,1.7431,0,1.7208,1.7241,1.7241,1.7264,1.7301,1.7297,1.7333,1.7338,1.735,1.7372,1.7361,1.7382,1.7378,1.7399,1.7397,1.743,1.7436,1.7436,1.7435,1.7437,1.7437,1.7444,1.744,1.7433,1.7432,1.7432,1.7432,0,1.7271,1.7273,1.7312,1.7324,1.7328,1.7355,1.7365,1.7386,1.7388,1.7416,1.7423,1.7426,1.745,1.7449,1.7476,1.7474,1.7515,1.751,1.7511,1.7509,1.7536,1.7533,1.7626,1.7637,1.7558,1.7558,1.7559,0,1.7313,1.7339,1.7354,1.7368,1.7377,1.7401,1.7415,1.7412,1.7427,1.7444,1.7463,1.7486,1.7504,1.7543,1.7546,1.7567,1.7561,1.7592,1.7564,1.7565,1.7561,1.7559,1.7561,1.7598,1.7599,1.7599,1.76,0,1.7388,1.7387,1.7408,1.743,1.7447,1.7464,1.7479,1.7491,1.7489,1.7506,1.7531,1.7545,1.7572,1.7595,1.7614,1.762,1.7609,1.7609,1.7616,1.7618,1.7617,1.7617,1.7525,1.7607,1.7606,1.7605,1.7605,1.7605,1.7441,1.7463,1.7476,1.75,1.7511,1.7525,1.7545,1.755,1.757,1.7593,1.7589,1.7616,1.7628,1.7653,1.7661,1.7682,1.767,1.7681,1.7684,1.7686,1.7689,1.7614,1.7685,1.7685,1.7685,1.7685,1.7685,0,1.7514,1.7522,1.7544,1.7565,1.7584,1.7573,1.7588,1.7604,1.7628,1.7641,1.7659,1.7686,1.7708,1.7713,1.7734,1.7749,1.7744,1.7754,1.7753,1.7754,1.7698,1.769,1.7757,1.7757,1.7757,1.7757,1.7757,1.7757,1.7554,1.7589,1.759,1.763,1.7638,1.7665,1.7675,1.7687,1.7697,1.7728,1.7746,1.775,1.7759,1.778,1.7799,1.7799,1.7807,1.7819,1.7818,1.7765,1.7758,1.7751,1.7743,1.7821,1.7821,1.7871,1.7872,1.7872]}]]